Overview Statistics Trail Chart Weather Telemetry Raw packets
 

This is the latest recevied weather packets stored in our database for station/object KC0RKM-13. If no packets are shown the sender has not sent any weather packets the latest 10 day(s).

<< 27 28 29 30 31 32 33 >>
Time Temp. Humidity Pressure Rain* Wind** Luminosity Snow
1788151803 29.44° C 47% 1010.8 hPa 0 mm - - -
1788151203 29.44° C 47% 1010.6 hPa 0 mm - - -
1788150604 28.89° C 48% 1010.7 hPa 0 mm - - -
1788150004 28.89° C 48% 1010.6 hPa 0 mm - - -
1788149403 29.44° C 48% 1010.8 hPa 0 mm - - -
1788148803 29.44° C 47% 1010.6 hPa 0 mm - - -
1788148204 29.44° C 47% 1010.7 hPa 0 mm - - -
1788147603 29.44° C 46% 1010.7 hPa 0 mm - - -
1788147003 29.44° C 46% 1010.7 hPa 0 mm - - -
1788146403 30° C 46% 1010.5 hPa 0 mm - - -
1788145804 30° C 46% 1010.5 hPa 0 mm - - -
1788145203 30° C 45% 1010.5 hPa 0 mm - - -
1788144603 30.56° C 44% 1010.2 hPa 0 mm - - -
1788144004 30.56° C 44% 1010.5 hPa 0 mm - - -
1788143403 30.56° C 44% 1010.3 hPa 0 mm - - -
1788142803 31.11° C 44% 1010.1 hPa 0 mm - - -
1788142204 31.11° C 44% 1010.1 hPa 0 mm - - -
1788141603 31.11° C 44% 1010 hPa 0 mm - - -
1788141004 31.11° C 43% 1009.8 hPa 0 mm - - -
1788140404 31.11° C 44% 1009.8 hPa 0 mm - - -
1788139804 31.67° C 44% 1009.5 hPa 0 mm - - -
1788139203 31.67° C 43% 1009.4 hPa 0 mm - - -
1788138604 32.22° C 42% 1009.4 hPa 0 mm - - -
1788138003 32.78° C 41% 1009.2 hPa 0 mm - - -
1788137404 33.33° C 40% 1009.2 hPa 0 mm - - -

* Rain latest hour (hover to see other rain measurements)
** Current wind speed in m/s (hover to see current wind gust speed)